Tracking 31027 objects as of 19-Jul-2025
HD Live streaming from Space Station
objects crossing your sky now

TIROS 6

Track TIROS 6 now!
10-day predictions
TIROS 6 is classified as:


NORAD ID: 397
Int'l Code: 1962-047A
Perigee: 580.4 km
Apogee: 600.6 km
Inclination: 58.3 °
Period: 96.3 minutes
Semi major axis: 6961 km
RCS: 0.807 m2 (medium)
Launch date: September 18, 1962
Source: United States (US)
Launch site: AIR FORCE EASTERN TEST RANGE (AFETR)
Your satellite tracking list
GALASSIA
Track 1 satellite(s)




NASA's NSSDC Master Catalog

Two Line Element Set (TLE):
1 00397U 62047A   25199.91767051  .00001032  00000-0  11536-3 0  9995
2 00397  58.3032 110.4133 0014521  77.4445 282.8225 14.94684832362479
Source of the keplerian elements: AFSPC